Home > Weather > Szeged > Past weeks

Flag for Hungary Weather for the Past 2 Weeks in Szeged, Hungary

Now
50 °F

Scattered clouds.


Feels Like: 48 °F
Forecast: 33 / 48 °F
Wind: 5 mph from West

Location: Szeged

Current Time: Feb 11, 2016 at 5:11:23 PM

Latest Report: Feb 11, 2016 at 4:00 PM


Visibility: 25 mi

Pressure: 29.77 "Hg

Humidity: 46%

Dew point: 30 °F

Location of SzegedLocation

Historic Weather in Szeged — Graph

°F

Szeged Temperature Yesterday

Maximum temperature yesterday: 50 °F (at 11:00 AM)
Minimum temperature yesterday: 40 °F (at 9:00 PM)
Average temperature yesterday: 46 °F

High & Low Weather Summary for the Past Weeks

 TemperatureHumidityPressure
High60 °F (Feb 2, 2:00 PM)100% (Jan 27, 5:00 PM)30.47 "Hg (Jan 27, 5:00 PM)
Low28 °F (Feb 6, 6:00 AM)44% (Feb 11, 3:00 PM)29.21 "Hg (Feb 10, 11:00 AM)
Average43 °F83%30.09 "Hg
* Reported Jan 27 4:00 PM — Feb 11 4:00 PM, Szeged, Weather by CustomWeather, © 2016

Note: Actual official high and low records may vary slightly from our data, if they occured in-between our weather recording intervals... More about our weather records

Advertising

Szeged Weather History for the Previous 24 Hours

 ConditionsComfort  
Time TempWeatherWind HumidityBarometerVisibility
4:00 PM
Thu, Feb 11
50 °FScattered clouds.5 mph46%29.77 "Hg25 mi
3:00 PM49 °FCool.5 mph44%29.76 "HgN/A
2:00 PM52 °FScattered clouds.5 mph49%29.75 "Hg25 mi
1:00 PM50 °FPassing clouds.6 mph48%29.76 "Hg25 mi
12:00 PM48 °FPassing clouds.6 mph61%29.77 "Hg25 mi
11:00 AM44 °FPartly sunny.6 mph69%29.78 "Hg19 mi
10:00 AM42 °FPartly sunny.5 mph80%29.78 "Hg19 mi
9:00 AM37 °FPartly sunny.3 mph90%29.76 "Hg16 mi
8:00 AM36 °FPartly sunny.5 mph91%29.75 "Hg19 mi
7:00 AM36 °FPartly sunny.6 mph89%29.73 "Hg19 mi
4:00 AM38 °FOvercast.7 mph82%29.66 "Hg19 mi
9:00 PM
Wed, Feb 10
40 °FOvercast.6 mph82%29.50 "Hg22 mi
8:00 PM41 °FOvercast.6 mph81%29.47 "Hg22 mi
7:00 PM41 °FPassing clouds.7 mph79%29.44 "Hg25 mi
6:00 PM42 °FOvercast.6 mph80%29.38 "Hg25 mi
5:00 PM42 °FLow clouds.8 mph82%29.35 "Hg25 mi
Weather by CustomWeather, © 2016

See weather overviewHow to use our weather pages